Weather History for West Palm Beach, FL

Change the Weather History Date:

Sunday, March 3, 2013

  Actual Average Record
Temperature  
Mean Temperature 55 °F 69 °F  
Max Temperature 62 °F 78 °F 89 °F (1916)
Min Temperature 47 °F 61 °F 30 °F (1980)
Degree Days  
Heating Degree Days 10 1  
Month to date heating degree days 20 3  
Since 1 July heating degree days 103 208  
Cooling Degree Days 0 6  
Month to date cooling degree days 0 16  
Year to date cooling degree days 381 251  
Growing Degree Days 4 (Base 50)    
Moisture  
Dew Point 37 °F    
Average Humidity 55    
Maximum Humidity 71    
Minimum Humidity 39    
Precipitation  
Precipitation 0.00 in 0.13 in 3.27 in (1897)
Month to date precipitation T 0.37  
Year to date precipitation 3.19 6.32  
Snow  
Snow 0.00 in - - ()
Month to date snowfall 0.0  
Since 1 July snowfall 0.0  
Snow Depth 0.00 in    
Sea Level Pressure  
Sea Level Pressure 30.03 in    
Wind  
Wind Speed 12 mph (WNW)    
Max Wind Speed 24 mph    
Max Gust Speed 30 mph    
Visibility 10 miles    
Events      
T = Trace of Precipitation, MM = Missing Value Source: NWS Daily Summary

Daily Weather History Graph

Daily Weather History Graph

Search for Another Location

Airport:

Trip Planner

Search our weather history database for the weather conditions in past years. The results will help you decide how hot, cold, wet, or windy it might be!

Date:

Astronomy

Mar. 03, 2013 Rise Set
Actual Time 6:41 AM EST 6:22 PM EST
Civil Twilight 6:18 AM EST 6:46 PM EST
Nautical Twilight 5:51 AM EST 7:13 PM EST
Astronomical Twilight 5:25 AM EST 7:39 PM EST
Moon No Moon Rise 10:32 AM EST (3/3)
Length of Visible Light 12h 27m
Length of Day
11h 40m
Waning Gibbous, 64% of the Moon is Illuminated
Mar 3
Waning Gibbous
Mar 4
Last Quarter
Mar 11
New
Mar 19
First Quarter
Mar 27
Full

Hourly Weather History & Observations

Time (EST) Temp. Dew Point Humidity Pressure Visibility Wind Dir Wind Speed Gust Speed Precip Events Conditions
12:53 AM 48.9 °F 37.9 °F 66% 30.01 in 10.0 mi NNW 5.8 mph - N/A   Partly Cloudy
1:53 AM 48.0 °F 37.9 °F 68% 30.01 in 10.0 mi NNW 5.8 mph - N/A   Partly Cloudy
2:53 AM 48.0 °F 39.0 °F 71% 29.99 in 10.0 mi NW 4.6 mph - N/A   Mostly Cloudy
3:53 AM 48.9 °F 39.9 °F 71% 29.98 in 10.0 mi WNW 3.5 mph - N/A   Mostly Cloudy
4:53 AM 48.0 °F 39.9 °F 74% 29.97 in 10.0 mi NW 5.8 mph - N/A   Overcast
5:53 AM 48.9 °F 37.9 °F 66% 29.99 in 10.0 mi WNW 6.9 mph - N/A   Mostly Cloudy
6:53 AM 46.9 °F 37.9 °F 71% 30.00 in 10.0 mi WNW 6.9 mph - N/A   Mostly Cloudy
7:53 AM 46.9 °F 37.0 °F 68% 30.02 in 10.0 mi WNW 13.8 mph - N/A   Scattered Clouds
8:53 AM 48.9 °F 33.1 °F 54% 30.04 in 10.0 mi NW 11.5 mph - N/A   Scattered Clouds
9:53 AM 53.1 °F 35.1 °F 50% 30.05 in 10.0 mi WNW 15.0 mph - N/A   Scattered Clouds
10:53 AM 55.9 °F 34.0 °F 44% 30.04 in 10.0 mi NW 13.8 mph - N/A   Scattered Clouds
11:53 AM 59.0 °F 35.1 °F 41% 30.03 in 10.0 mi WNW 13.8 mph 26.5 mph N/A   Scattered Clouds
12:53 PM 61.0 °F 35.1 °F 38% 30.01 in 10.0 mi West 18.4 mph 26.5 mph N/A   Scattered Clouds
1:53 PM 59.0 °F 36.0 °F 42% 29.99 in 10.0 mi WNW 18.4 mph - N/A   Scattered Clouds
2:53 PM 61.0 °F 37.0 °F 41% 29.99 in 10.0 mi WNW 21.9 mph 26.5 mph N/A   Scattered Clouds
3:53 PM 60.1 °F 36.0 °F 41% 29.99 in 10.0 mi WNW 17.3 mph 26.5 mph N/A   Scattered Clouds
4:53 PM 59.0 °F 36.0 °F 42% 30.01 in 10.0 mi WNW 19.6 mph 26.5 mph N/A   Mostly Cloudy
5:53 PM 55.9 °F 37.0 °F 49% 30.02 in 10.0 mi WNW 19.6 mph 27.6 mph N/A   Mostly Cloudy
6:53 PM 55.0 °F 37.9 °F 53% 30.05 in 10.0 mi WNW 16.1 mph - N/A   Mostly Cloudy
7:53 PM 53.1 °F 37.9 °F 57% 30.07 in 10.0 mi West 11.5 mph - N/A   Partly Cloudy
8:53 PM 52.0 °F 39.0 °F 61% 30.10 in 10.0 mi West 12.7 mph - N/A   Partly Cloudy
9:53 PM 50.0 °F 39.0 °F 66% 30.12 in 10.0 mi WNW 9.2 mph - N/A   Partly Cloudy
10:53 PM 48.9 °F 37.9 °F 66% 30.14 in 10.0 mi WNW 10.4 mph - N/A   Partly Cloudy
11:53 PM 48.0 °F 37.9 °F 68% 30.14 in 10.0 mi NW 9.2 mph - N/A   Partly Cloudy